User: anonymous   Login
Location: Unspecified
(0.0000°N, 0.0000°E)
Time: 18:11:04
(UTC+00:00)
Language:

ONEWEB-0474 - Orbit

View from above orbital plane
View from above orbital plane
View from above satellite
View from above satellite

Ground track
Ground track

The orbit is defined by the following mean orbital elements,

1 51654U          26145.41449583 +.00000000 +00000-0 -71959-3 0 00005
2 51654  87.8859  40.7924 0001946  70.8736 289.2602 13.10370823    02
Epoch (UTC): 25 May 2026 09:56:52
Eccentricity: 0.0001946
inclination: 87.8859°
perigee height: 1220 km
apogee height: 1223 km
right ascension of ascending node: 40.7924°
argument of perigee: 70.8736°
revolutions per day: 13.10370823
mean anomaly at epoch: 289.2602°

The dashed part of the orbit path shows where the satellite is in the earth's shadow,  

DLR